N6AMM Weather Reports


time (UTC)temp
C
wind
direction
speed
KPH
gust
KPH
rain 1hr
cm
rain 24hr
cm
rain mn
cm
humidity
%
barometer
mb
20260507064527 6 227 0.0 0.0 0.00 0.00 0.00 80 1022.4
20260507063020 6 246 0.0 1.6 0.00 0.00 0.00 80 1022.4
20260507061523 6 310 0.0 3.2 0.00 0.00 0.00 81 1022.4
20260507060024 6 317 0.0 3.2 0.00 0.00 0.00 80 1022.5
20260507054524 7 261 0.0 4.8 0.00 0.00 0.00 78 1022.3
20260507051520 7 280 0.0 0.0 0.00 0.00 0.00 75 1021.9
20260507050029 8 280 0.0 0.0 0.00 0.00 0.00 75 1021.8
20260507044524 8 270 0.0 0.0 0.00 0.00 0.00 75 1021.8
20260507043026 8 260 0.0 3.2 0.00 0.00 0.00 74 1021.7
20260507041520 10 191 0.0 1.6 0.00 0.00 0.00 72 1021.6
20260507034524 11 238 0.0 3.2 0.00 0.00 0.00 69 1021.2
20260507033037 11 279 3.2 6.4 0.00 0.00 0.00 66 1021.1
20260507031537 12 264 1.6 3.2 0.00 0.00 0.00 65 1021.0
20260507030025 12 194 0.0 3.2 0.00 0.00 0.00 65 1021.0
20260507023026 13 252 3.2 9.7 0.00 0.00 0.00 60 1020.7
20260507021525 14 251 3.2 9.7 0.00 0.00 0.00 58 1020.5
20260507020026 15 293 1.6 12.9 0.00 0.00 0.00 56 1020.5
20260507014535 17 248 8.0 16.1 0.00 0.00 0.00 50 1020.4
20260507013035 20 311 8.0 14.5 0.00 0.00 0.00 38 1020.3
20260507011533 21 173 1.6 6.4 0.00 0.00 0.00 27 1020.0
20260507010008 22 177 1.6 9.7 0.00 0.00 0.00 26 1020.0
20260507004507 22 44 0.0 4.8 0.00 0.00 0.00 26 1019.9
20260507003008 22 103 1.6 6.4 0.00 0.00 0.00 25 1019.9
20260507001511 23 116 3.2 6.4 0.00 0.00 0.00 26 1019.8
20260507000010 22 149 3.2 9.7 0.00 0.00 0.00 26 1019.7
20260506234509 22 352 6.4 16.1 0.00 0.00 0.00 27 1019.6
20260506233008 22 89 3.2 11.3 0.00 0.00 0.00 29 1019.7
20260506231511 22 165 3.2 12.9 0.00 0.00 0.00 32 1019.7
20260506230010 23 80 4.8 12.9 0.00 0.00 0.00 27 1019.7
20260506224510 23 242 3.2 12.9 0.00 0.00 0.00 29 1019.7
20260506223016 23 14 3.2 6.4 0.00 0.00 0.00 28 1019.9
20260506221510 22 96 4.8 12.9 0.00 0.00 0.00 34 1020.0
20260506220011 22 57 3.2 14.5 0.00 0.00 0.00 32 1020.3
20260506213014 22 191 4.8 19.3 0.00 0.00 0.00 32 1020.4
20260506211519 22 297 4.8 12.9 0.00 0.00 0.00 34 1020.5
20260506210017 21 13 3.2 25.7 0.00 0.00 0.00 37 1020.4
20260506204516 20 281 4.8 17.7 0.00 0.00 0.00 35 1020.6
20260506203014 20 329 3.2 19.3 0.00 0.00 0.00 36 1020.5
20260506201518 20 286 4.8 17.7 0.00 0.00 0.00 38 1020.6
20260506200012 20 76 1.6 16.1 0.00 0.00 0.00 41 1020.7
20260506194516 19 229 6.4 17.7 0.00 0.00 0.00 37 1020.9
20260506191519 18 13 6.4 16.1 0.00 0.00 0.00 40 1021.0
20260506190015 17 192 4.8 16.1 0.00 0.00 0.00 41 1021.0
20260506184515 17 275 3.2 11.3 0.00 0.00 0.00 41 1021.0
20260506183016 16 161 3.2 14.5 0.00 0.00 0.00 42 1021.0
20260506180025 16 155 4.8 16.1 0.00 0.00 0.00 45 1021.2
20260506174520 15 315 4.8 14.5 0.00 0.00 0.00 45 1020.9
20260506173019 15 26 6.4 14.5 0.00 0.00 0.00 47 1020.9
20260506171519 14 316 4.8 14.5 0.00 0.00 0.00 48 1020.9
20260506164520 13 339 3.2 9.7 0.00 0.00 0.00 52 1020.6
20260506163025 13 310 1.6 6.4 0.00 0.00 0.00 54 1020.5
20260506161518 12 331 3.2 8.0 0.00 0.03 0.00 60 1020.3
20260506154524 8 11 1.6 4.8 0.00 0.05 0.00 95 1020.1
20260506153022 7 109 0.0 0.0 0.00 0.08 0.00 95 1020.1
20260506151523 6 261 0.0 0.0 0.00 0.08 0.00 95 1020.1
20260506144525 2 261 0.0 0.0 0.00 0.10 0.00 94 1020.1
20260506143026 1 261 0.0 0.0 0.00 0.13 0.00 94 1020.0
20260506141524 0 261 0.0 0.0 0.00 0.13 0.00 94 1020.0
20260506140024 0 261 0.0 0.0 0.00 0.15 0.00 93 1019.9
20260506133020 0 261 0.0 0.0 0.00 0.23 0.00 92 1019.5
20260506131530 0 261 0.0 0.0 0.00 0.28 0.00 92 1019.5
20260506124521 0 259 0.0 0.0 0.00 0.36 0.00 92 1019.3
20260506123025 0 261 0.0 0.0 0.00 0.38 0.00 92 1019.1
20260506114520 0 261 0.0 0.0 0.00 0.41 0.00 91 1019.1
20260506113020 0 307 0.0 0.0 0.00 0.41 0.00 91 1018.9
20260506111524 0 307 0.0 0.0 0.00 0.41 0.00 91 1018.9
20260506104513 0 348 0.0 0.0 0.00 0.41 0.00 91 1018.7
20260506103021 0 348 0.0 0.0 0.00 0.41 0.00 90 1018.6
20260506101538 0 348 0.0 0.0 0.00 0.41 0.00 90 1018.4
20260506100026 0 351 0.0 0.0 0.00 0.41 0.00 90 1018.5
20260506094527 1 36 0.0 0.0 0.00 0.41 0.00 89 1018.4
20260506093022 1 36 0.0 0.0 0.00 0.41 0.00 89 1018.4
20260506091526 1 36 0.0 0.0 0.00 0.41 0.00 88 1018.3
20260506090026 1 36 0.0 0.0 0.00 0.43 0.00 88 1018.4
20260506084526 2 28 0.0 0.0 0.00 0.43 0.00 88 1018.5
20260506083030 2 28 0.0 0.0 0.00 0.43 0.00 88 1018.6
20260506073037 2 178 0.0 4.8 0.00 0.51 0.00 91 1018.8
20260506071519 2 9 0.0 6.4 0.00 0.51 0.00 91 1018.8